[[{"header":{"parameterUnit":"m.s-1","parameterCategory":1,"la1":30.2991,"la2":30.254,"lo1":-89.0895,"lo2":-89.0444,"dy":0.0017,"dx":0.0017,"nx":28,"ny":28,"refTime":"2024-07-25T03:00:00:Z","depth":0,"parameterNumber":2,"parameterNumberName":"U-component_of_WINDS"},"data":[0,0,0,0,0,0,0,0,0,0,0,0,0,0,0,0,0,0,0,0,0,0,0,0,0,0,0,0,0,0,0,0,0,0,0,0,0,0,0,0,0,0,0,0,0,0,0,0,0,0,0,0,0,0,0,0,0,0,-0.4868,-0.4867,0,-0.4757,-0.4756,-0.4755,-0.4699,-0.4699,-0.4699,-0.4699,-0.4581,-0.4578,-0.4575,0,0,0,0,0,0,0,0,0,0,0,0,0,-0.5031,-0.5028,-0.4869,-0.4867,-0.4866,-0.4757,-0.4756,-0.4754,-0.4699,-0.4699,-0.4699,-0.4699,-0.4582,-0.4579,-0.4575,0,0,0,0,0,0,0,0,0,0,0,0,0,-0.4944,-0.5027,-0.4869,-0.4825,-0.482,-0.4758,-0.4756,-0.4754,-0.4699,-0.4699,-0.4699,-0.4699,-0.4584,-0.4579,-0.4574,-0.4545,0,0,-0.456,-0.4558,0,0,0,0,0,0,0,0,-0.4949,-0.4938,-0.4833,-0.4828,-0.4823,-0.4742,-0.477,-0.4684,-0.4699,-0.4745,-0.4699,-0.4699,-0.4635,-0.4626,-0.4605,-0.4539,-0.4534,-0.4559,-0.4557,-0.4555,-0.4553,0,0,0,0,0,0,0,-0.4955,-0.4942,-0.4824,-0.4832,-0.4825,-0.4811,-0.4798,-0.4753,-0.4691,-0.4741,-0.4737,-0.4725,-0.4632,-0.4609,-0.4601,-0.4533,-0.456,-0.4555,-0.4553,-0.4551,-0.4438,-0.4437,0,0,0,0,0,0,-0.4968,-0.4948,-0.4828,-0.4821,-0.4887,-0.4808,-0.4794,-0.4768,-0.4691,-0.468,-0.4725,-0.4723,-0.4617,-0.4607,-0.4597,-0.4557,-0.4555,-0.455,-0.4547,-0.4438,-0.4438,-0.4437,0,0,0,0,0,0,-0.4972,-0.4958,-0.4832,-0.4883,-0.4866,-0.4805,-0.4776,-0.4766,-0.4743,-0.4679,-0.4667,-0.4714,-0.4617,-0.4604,-0.4559,-0.4553,-0.4548,-0.4544,-0.4438,-0.4438,-0.4437,-0.4478,0,0,0,0,0,0,-0.4977,-0.496,-0.4949,-0.4883,-0.4864,-0.4797,-0.4776,-0.4764,-0.4736,-0.4732,-0.4665,-0.4654,-0.4616,-0.4566,-0.4554,-0.4546,-0.454,-0.4438,-0.4438,-0.4437,-0.4477,-0.448,-0.4482,0,0,0,0,0,-0.4983,-0.4964,-0.4949,-0.4934,-0.4849,-0.4797,-0.4785,-0.4742,-0.4736,-0.4723,-0.4682,-0.4657,-0.4556,-0.4562,-0.4548,-0.4538,-0.4438,-0.4438,-0.4438,-0.4476,-0.4479,-0.4482,0,0,0,0,0,0,-0.5029,-0.4954,-0.4937,-0.4896,-0.4853,-0.4788,-0.4771,-0.4747,-0.4704,-0.4702,-0.4649,-0.4635,-0.4594,-0.4562,-0.457,-0.4506,-0.4494,-0.4491,-0.4529,-0.4531,-0.4533,-0.4541,-0.4536,0,0,0,0,0,-0.5034,-0.5,-0.4936,-0.4906,-0.4886,-0.4832,-0.4808,-0.4779,-0.4732,-0.4713,-0.4669,-0.4623,-0.4581,-0.4554,-0.4512,-0.4473,-0.4457,-0.4459,-0.4461,-0.4464,-0.4461,-0.4438,-0.4438,-0.4436,-0.4436,-0.4436,0,0,-0.5045,-0.5,-0.4981,-0.4914,-0.4878,-0.4842,-0.4817,-0.478,-0.4753,-0.4707,-0.4662,-0.4628,-0.4573,-0.4531,-0.4511,-0.4503,-0.4458,-0.4463,-0.4465,-0.4461,-0.4437,-0.4438,-0.4438,-0.4436,-0.4436,-0.4436,0,0,-0.5046,-0.5009,-0.498,-0.4945,-0.489,-0.4855,-0.4848,-0.4786,-0.4762,-0.4716,-0.4682,-0.4648,-0.4576,-0.4539,-0.4511,-0.4499,-0.4473,-0.4487,-0.4497,-0.4475,-0.4475,-0.4475,-0.4471,-0.447,-0.4484,-0.4485,-0.4485,0,-0.5066,-0.5012,-0.4968,-0.4933,-0.4905,-0.4864,-0.4834,-0.4801,-0.4735,-0.4715,-0.4708,-0.4618,-0.4579,-0.4527,-0.4525,-0.4503,-0.4493,-0.4493,-0.4479,-0.4479,-0.4478,-0.4473,-0.4471,-0.4486,-0.4486,-0.4486,-0.4486,0,-0.5038,-0.5001,-0.4984,-0.4923,-0.4893,-0.4861,-0.4812,-0.4786,-0.476,-0.4725,-0.4679,-0.463,-0.4578,-0.4563,-0.4537,-0.4508,-0.4505,-0.449,-0.4477,-0.4481,-0.4475,-0.4473,-0.4489,-0.4489,-0.4488,-0.4487,0,0,-0.5064,-0.4981,-0.4975,-0.4947,-0.4884,-0.4854,-0.482,-0.477,-0.4749,-0.4705,-0.4674,-0.4616,-0.4601,-0.4569,-0.4538,-0.4519,-0.4512,-0.4505,-0.4503,-0.4507,-0.4477,-0.4489,-0.4488,-0.4495,-0.4495,-0.4494,-0.4482,0,-0.5056,-0.4994,-0.4955,-0.4908,-0.4873,-0.4834,-0.4804,-0.4762,-0.4728,-0.4693,-0.4656,-0.4615,-0.4599,-0.4579,-0.4558,-0.4518,-0.4505,-0.4518,-0.4465,-0.4464,-0.448,-0.4485,-0.4497,-0.4488,-0.4479,-0.4479,-0.4479,0,-0.5038,-0.4997,-0.4948,-0.4889,-0.4873,-0.4847,-0.4798,-0.4765,-0.4716,-0.4693,-0.4659,-0.4628,-0.4589,-0.458,-0.4526,-0.4535,-0.4512,-0.4488,-0.4487,-0.448,-0.4471,-0.4477,-0.4483,-0.4482,-0.4475,-0.4475,-0.4475,0,-0.5062,-0.4994,-0.4955,-0.4933,-0.4864,-0.4846,-0.4817,-0.4768,-0.4741,-0.4698,-0.4679,-0.4632,-0.4606,-0.4569,-0.4526,-0.4524,-0.4476,-0.4463,-0.4455,-0.4456,-0.4446,-0.4447,-0.4447,-0.4432,-0.4432,-0.4432,-0.4432,0,-0.5057,-0.5028,-0.4965,-0.4942,-0.4908,-0.4862,-0.483,-0.4797,-0.4754,-0.4723,-0.4685,-0.4656,-0.4601,-0.4565,-0.4531,-0.4491,-0.4479,-0.4459,-0.445,-0.4462,-0.4465,-0.4445,-0.4444,-0.4431,-0.4431,-0.4431,-0.4431,0,-0.5077,-0.5034,-0.499,-0.4929,-0.4913,-0.489,-0.4838,-0.4813,-0.4778,-0.4739,-0.4727,-0.4672,-0.4627,-0.4581,-0.452,-0.4497,-0.4459,-0.4446,-0.4476,-0.447,-0.4464,-0.4465,-0.4452,-0.4448,-0.4436,-0.4436,-0.4436,0,-0.5077,-0.5054,-0.4991,-0.4968,-0.4939,-0.4902,-0.4875,-0.4829,-0.4801,-0.4745,-0.4726,-0.468,-0.464,-0.4571,-0.4525,-0.4478,-0.4464,-0.4463,-0.4457,-0.447,-0.4464,-0.4465,-0.4463,-0.4465,-0.4465,-0.4465,-0.4466,0,-0.508,-0.506,-0.5022,-0.4977,-0.4945,-0.4907,-0.4867,-0.485,-0.4797,-0.4767,-0.4723,-0.4692,-0.4631,-0.4585,-0.4533,-0.4501,-0.4474,-0.4468,-0.4463,-0.4475,-0.4493,-0.4483,-0.448,-0.4468,-0.4468,-0.4468,-0.4468,-0.4468,-0.5089,-0.5067,-0.502,-0.4979,-0.4945,-0.4908,-0.4882,-0.4845,-0.4807,-0.4755,-0.473,-0.4685,-0.4637,-0.4565,-0.4533,-0.4497,-0.4489,-0.4482,-0.4481,-0.448,-0.4482,-0.45,-0.4487,-0.4487,-0.4487,-0.4487,-0.4487,0,-0.5091,-0.5058,-0.5021,-0.4968,-0.4935,-0.4915,-0.487,-0.4844,-0.4805,-0.4763,-0.4725,-0.4674,-0.4629,-0.458,-0.4532,-0.4512,-0.4498,-0.4501,-0.4501,-0.4494,-0.4492,-0.4501,-0.4513,-0.4513,-0.4513,-0.4513,-0.4513,-0.4513,-0.5087,-0.5049,-0.5024,-0.4968,-0.4935,-0.4892,-0.4868,-0.4834,-0.4801,-0.4745,-0.4708,-0.4677,-0.4632,-0.4581,-0.4539,-0.4525,-0.4509,-0.4515,-0.4498,-0.4497,-0.4495,-0.4493,-0.45,-0.4512,-0.4512,-0.4503,-0.4503,-0.4503]},{"header":{"parameterUnit":"m.s-1","parameterCategory":1,"la1":30.2991,"la2":30.254,"lo1":-89.0895,"lo2":-89.0444,"dy":0.0017,"dx":0.0017,"nx":28,"ny":28,"refTime":"2024-07-25T03:00:00:Z","depth":0,"parameterNumber":3,"parameterNumberName":"V-component_of_WINDS"},"data":[0,0,0,0,0,0,0,0,0,0,0,0,0,0,0,0,0,0,0,0,0,0,0,0,0,0,0,0,0,0,0,0,0,0,0,0,0,0,0,0,0,0,0,0,0,0,0,0,0,0,0,0,0,0,0,0,0,0,2.5279,2.5279,0,2.526,2.526,2.526,2.5232,2.5231,2.5231,2.523,2.5209,2.5209,2.5209,0,0,0,0,0,0,0,0,0,0,0,0,0,2.5291,2.5291,2.5279,2.5279,2.5279,2.526,2.526,2.526,2.5232,2.5231,2.523,2.523,2.5209,2.5209,2.5209,0,0,0,0,0,0,0,0,0,0,0,0,0,2.528,2.5291,2.5279,2.5263,2.5261,2.526,2.526,2.5259,2.5232,2.5231,2.523,2.523,2.5209,2.5209,2.5209,2.5223,0,0,2.5209,2.5209,0,0,0,0,0,0,0,0,2.5281,2.528,2.5265,2.5264,2.5262,2.5247,2.5256,2.5247,2.5232,2.5243,2.523,2.5229,2.5223,2.5221,2.5219,2.5222,2.5221,2.5209,2.5209,2.5209,2.5208,0,0,0,0,0,0,0,2.5282,2.5281,2.5272,2.5265,2.5263,2.5256,2.5254,2.5254,2.5237,2.5242,2.524,2.5238,2.5221,2.5219,2.5219,2.5221,2.5209,2.5209,2.5208,2.5208,2.5234,2.5235,0,0,0,0,0,0,2.5285,2.5281,2.5272,2.5271,2.527,2.5256,2.5254,2.5253,2.5237,2.5234,2.5239,2.5237,2.522,2.5219,2.5218,2.5233,2.5209,2.5208,2.5208,2.5234,2.5235,2.5235,0,0,0,0,0,0,2.5285,2.5285,2.5273,2.5276,2.5274,2.5257,2.5256,2.5253,2.5251,2.5234,2.5231,2.524,2.5219,2.5218,2.5222,2.5232,2.5208,2.5208,2.5233,2.5234,2.5235,2.5264,0,0,0,0,0,0,2.5286,2.5285,2.529,2.5276,2.5274,2.5278,2.5257,2.5253,2.5251,2.5248,2.5235,2.5232,2.5219,2.5222,2.5222,2.5232,2.5208,2.5232,2.5233,2.5235,2.5262,2.5266,2.527,0,0,0,0,0,2.5286,2.5298,2.529,2.5289,2.528,2.5278,2.5277,2.5262,2.5252,2.5257,2.5246,2.5232,2.5231,2.5223,2.5222,2.5232,2.5231,2.5233,2.5234,2.5261,2.5266,2.527,0,0,0,0,0,0,2.5313,2.5296,2.5287,2.5295,2.5288,2.5274,2.5279,2.5268,2.5264,2.5261,2.5243,2.524,2.5247,2.5239,2.5231,2.5245,2.5229,2.5231,2.5249,2.5254,2.5257,2.5259,2.5208,0,0,0,0,0,2.532,2.5321,2.5306,2.5314,2.5312,2.5296,2.5295,2.5284,2.5277,2.5274,2.5263,2.5256,2.5255,2.5254,2.5251,2.5261,2.5258,2.5268,2.5271,2.5274,2.5276,2.5282,2.5286,2.5241,2.5241,2.5241,0,0,2.5334,2.5325,2.5327,2.532,2.5313,2.5314,2.5294,2.5296,2.5297,2.5274,2.5277,2.527,2.5261,2.5268,2.5271,2.5263,2.5288,2.5277,2.5279,2.5279,2.5284,2.5289,2.5292,2.5242,2.5242,2.5242,0,0,2.5361,2.5354,2.5361,2.5355,2.5346,2.5336,2.5337,2.5325,2.5319,2.5323,2.5306,2.5306,2.5303,2.5298,2.5294,2.532,2.5307,2.532,2.5339,2.5345,2.5349,2.5352,2.5362,2.5365,2.5321,2.5322,2.5322,0,2.538,2.5381,2.5365,2.5369,2.5366,2.5346,2.5353,2.5348,2.5339,2.5338,2.5328,2.5325,2.5317,2.5324,2.533,2.5328,2.533,2.5321,2.5349,2.5352,2.5355,2.5364,2.5368,2.5323,2.5323,2.5323,2.5323,0,2.5405,2.5406,2.5412,2.5405,2.5403,2.5408,2.5393,2.5393,2.5383,2.5374,2.5378,2.5368,2.5364,2.5364,2.5354,2.537,2.5365,2.5353,2.5337,2.5361,2.537,2.5373,2.5325,2.5325,2.5324,2.5324,0,0,2.5447,2.5431,2.5434,2.5431,2.542,2.542,2.5425,2.5421,2.5422,2.5416,2.5419,2.5418,2.5407,2.5404,2.5392,2.5397,2.542,2.5385,2.5384,2.5392,2.5437,2.5447,2.5451,2.5411,2.5412,2.5412,2.5439,0,2.5472,2.5479,2.5465,2.5475,2.5477,2.5458,2.5462,2.5456,2.5448,2.5448,2.5438,2.5438,2.5423,2.5421,2.5426,2.5416,2.5428,2.5414,2.5414,2.5415,2.5418,2.5456,2.5466,2.5491,2.5442,2.5442,2.5443,0,2.5501,2.5498,2.5509,2.5498,2.5498,2.5502,2.5498,2.5498,2.5491,2.5485,2.5481,2.5469,2.5472,2.5457,2.5462,2.5452,2.5452,2.5447,2.5448,2.5448,2.543,2.5457,2.5499,2.5503,2.5447,2.5447,2.5447,0,2.5532,2.5531,2.5537,2.5534,2.5522,2.5525,2.552,2.5512,2.5511,2.5508,2.5507,2.5504,2.5502,2.55,2.5487,2.5476,2.5494,2.5477,2.5489,2.549,2.5494,2.5494,2.5537,2.5492,2.5492,2.5492,2.5492,0,2.5562,2.5569,2.5551,2.5555,2.5563,2.5547,2.5556,2.5549,2.5542,2.5544,2.5528,2.553,2.5513,2.5513,2.5503,2.5509,2.5508,2.5504,2.5501,2.5506,2.5506,2.5505,2.5504,2.5493,2.5493,2.5493,2.5493,0,2.5598,2.5586,2.5592,2.558,2.5577,2.5584,2.5573,2.5577,2.5568,2.5571,2.5571,2.5557,2.5557,2.5544,2.5541,2.5534,2.5545,2.5539,2.5548,2.5546,2.556,2.5559,2.5604,2.5609,2.5561,2.5561,2.5562,0,2.5618,2.5623,2.5612,2.5613,2.5609,2.561,2.5609,2.5594,2.5594,2.5587,2.5591,2.559,2.5589,2.559,2.5579,2.5577,2.5571,2.5587,2.5571,2.5576,2.5573,2.5573,2.5574,2.5591,2.5591,2.5592,2.5592,0,2.5654,2.5648,2.5648,2.5646,2.5646,2.5643,2.5639,2.5641,2.5625,2.5625,2.5626,2.5625,2.5622,2.5622,2.5618,2.5613,2.56,2.5598,2.56,2.5606,2.5611,2.5609,2.5558,2.5597,2.5596,2.5596,2.5596,2.5595,2.5683,2.5688,2.5681,2.5682,2.5677,2.5675,2.5678,2.567,2.567,2.5667,2.5658,2.566,2.5654,2.5648,2.5644,2.5645,2.5637,2.5641,2.5642,2.5644,2.5647,2.561,2.5644,2.5644,2.5644,2.5644,2.5644,0,2.572,2.5715,2.5716,2.5712,2.5712,2.5701,2.5696,2.5698,2.57,2.5695,2.5694,2.5695,2.5695,2.5685,2.5683,2.5686,2.5681,2.5687,2.5687,2.5686,2.5654,2.5652,2.5691,2.5691,2.5691,2.5691,2.5691,2.5691,2.5739,2.5746,2.574,2.5745,2.574,2.5743,2.5741,2.5739,2.5735,2.5737,2.5737,2.5731,2.5724,2.5722,2.5721,2.5718,2.5719,2.5727,2.5722,2.5692,2.5688,2.5684,2.5682,2.5727,2.5727,2.5755,2.5755,2.5755]}]]